map of CMN home
Great Circle Mapper logo
CMN - Airport
Location
City:  Casablanca, Morocco
Name:Mohammed V International Airport
ICAO / IATA:GMMN / CMN

Details
Type:Airport (Aerodrome, Airfield)
Use:Public/Civil, International (customs port of entry)
Latitude:3322'03"N (33.367467)
Longitude:735'24"W (-7.589966)
Datum:WGS 1984
Elevation:656 ft (200 m)
Variation:2.14W (WMM2015 magnetic declination)
0.11 annual change
Runways:2
Longest:12205 × 148 ft (3720 × 45 m), paved

Time
Time Zone:UTC+0 (DST+1)
Local Time:

Weather
METAR:GMMN 282200Z VRB02KT 5000 BR BKN016 09/07 Q1027 TEMPO 3000 BR
TAF:GMMN 281700Z 2818/2924 36008KT 9999 BKN016
BECMG 2820/2824 34004K T 5000 SCT004
TEMPO 2900/2908 VRB02KT 2000 BR BKN003
TEMPO 2902/2905 0600 FG
BECMG 2909/2912 32006KT 8000 SCT016

Related Locations
Nearby:
Farthest:KAT: 12304 mi / 19802 km
Kaitaia, NZ

Find:

   beyond  
but within

Other Information
Maps:
NOTAMs:
Links:
Sources:

  
flag of Morocco   

Sectional Chart

Flight Planning
at skyvector.com

Satellite Image

Google Maps Satellite View

 

Copyright © 2004-2015 Karl L. Swartz. All rights reserved.
The Great Circle Mapper name and logo are trademarks of the Great Circle Mapper.
All other trademarks mentioned herein belong to their respective owners.
Please see credits for attibutions and further copyright information.

  Follow gcmap on Facebook Follow gcmap on Twitter

hCard Microformat

Geo Microformat